STARLINK-32075, 60345

Orbit data source: Space-Track

STARLINK-32075, 60345 is a payload satellite owned by SpaceX/Seattle (US) in LEO that was launched on Fri, 02 Aug 2024 UTC via an FALCON 9 launch vehicle from the Air Force Eastern Test Range (AFETR). Payload-class satellites include a variety of spacecraft equipped with specific instruments for various scientific and technological missions. These include communications satellites like Starlink; space stations such as the ISS; scientific satellites like the Hubble; Earth observation satellites from companies like Planet Labs, Umbra, and HawkEye 360; GPS; miniature CubeSats for education and research; and military/defense satellites.

Loading next visibility...
Identifier
60345, 2024-136S
Orbit
LEO
Last TLE update
10 hours ago
Origin
Manufacturer
SpaceX/Seattle
Mission
Operational Commercial Communications
Bus & Motor
STARLINK V2M, Unknown motor
Mass
730 kg wet, ~700 kg dry
Launch date (UTC)
2024-08-02 (1 year ago)
Launch vehicle
FALCON 9
Launch site
Air Force Eastern Test Range (AFETR)
Object type
Payload
Rocket body
Debris
Shape & HBR
Box + 2 Pan, 14.5 m
Radar Cross Section
33.884 m², Large (>1 m²)

Expand to show TLE details & history

TLE from 10 hours ago
0 STARLINK-32075
1 60345U 24136S   25200.03760618 -.00000347  00000-0  40769-6 0  9991
2 60345  53.1612  80.7926 0001445  80.5824 279.5340 15.30223331 55059
Epoch: 2025-07-19T00:54Z
TLE epoch observation values (Epoch: 2025-07-19T00:54:09.173Z)
Latitude
-0.00005°
Longitude
130.17388°
Altitude
475.881 km
Speed
7.629 km/s
True Right ascension
05h 23m 10s
True Declination
0° 00' 00"
Sunlit
Object was in daylight at epoch
Visualization orbit readout
Latitude
53.29831°
Longitude
-143.62511°
Altitude
480.734 km
Speed
7.632 km/s
Apparent Right ascension
11h 20m 33s
Apparent Declination
8° 52' 42"
Sunlit
Object is in daylight
Visualization observer readout
Local Sidereal Time
23:31:06
Azimuth
3.46° NNE
Elevation
-41.145°
Doppler factor
1
Orbital elements
Apogee altitude
476.392 km
Perigee altitude
474.411 km
Semi-major axis
6,853.539 km
Eccentricity
0.00014
Inclination
53.1612°
RAAN
80.7926°
Arg. of periapsis
80.5824°
True anomaly
279.51767°
Mean anomaly
279.534°
Eccentric anomaly
279.52583°
Mean motion
3.82535 °/min
Orbital period
94.11 mins
BSTAR
4.0769e-7
Loading maneuver chart data...
Loading SW <> Apogee altitude chart data...
Loading historical data...
Loading historical data...
Loading historical data...
Loading historical data...
Loading historical data...
Loading historical data...
Loading historical data...
|